| time (UTC) | temp F | wind direction | speed MPH | gust MPH | rain 1hr in | rain 24hr in | rain mn in | humidity % | barometer mb |
| 20260504234515 | 52 | 337 | 10.0 | 22.0 | 0.00 | 0.01 | 0.00 | 43 | 1008.4 |
| 20260504233015 | 51 | 336 | 15.0 | 21.0 | 0.00 | 0.01 | 0.00 | 42 | 1008.3 |
| 20260504231514 | 51 | 348 | 4.0 | 20.0 | 0.00 | 0.01 | 0.00 | 44 | 1008.3 |
| 20260504230014 | 51 | 321 | 9.0 | 21.0 | 0.00 | 0.01 | 0.00 | 45 | 1008.3 |
| 20260504224512 | 51 | 325 | 13.0 | 24.0 | 0.00 | 0.01 | 0.00 | 44 | 1008.2 |
| 20260504223011 | 51 | 340 | 15.0 | 25.0 | 0.00 | 0.01 | 0.00 | 44 | 1008.1 |
| 20260504221513 | 53 | 351 | 16.0 | 28.0 | 0.00 | 0.01 | 0.00 | 42 | 1008.0 |
| 20260504220013 | 52 | 343 | 18.0 | 25.0 | 0.00 | 0.01 | 0.00 | 43 | 1008.1 |
| 20260504214509 | 52 | 327 | 16.0 | 26.0 | 0.00 | 0.01 | 0.00 | 42 | 1008.2 |
| 20260504213009 | 52 | 348 | 20.0 | 27.0 | 0.00 | 0.01 | 0.00 | 42 | 1008.3 |
| 20260504211508 | 53 | 333 | 14.0 | 33.0 | 0.00 | 0.01 | 0.00 | 41 | 1008.3 |
| 20260504210008 | 53 | 344 | 19.0 | 28.0 | 0.00 | 0.01 | 0.00 | 40 | 1008.3 |
| 20260504204506 | 53 | 333 | 12.0 | 27.0 | 0.00 | 0.05 | 0.00 | 42 | 1008.5 |
| 20260504203007 | 52 | 325 | 19.0 | 31.0 | 0.00 | 0.05 | 0.00 | 41 | 1008.5 |
| 20260504201506 | 52 | 313 | 18.0 | 27.0 | 0.00 | 0.05 | 0.00 | 42 | 1008.7 |
| 20260504200006 | 53 | 323 | 13.0 | 29.0 | 0.00 | 0.05 | 0.00 | 43 | 1008.5 |
| 20260504194503 | 53 | 325 | 17.0 | 26.0 | 0.00 | 0.05 | 0.00 | 44 | 1008.5 |
| 20260504193002 | 53 | 350 | 19.0 | 28.0 | 0.00 | 0.05 | 0.00 | 42 | 1008.2 |
| 20260504191611 | 53 | 355 | 16.0 | 30.0 | 0.00 | 0.05 | 0.00 | 41 | 1008.3 |
| 20260504190121 | 53 | 342 | 15.0 | 30.0 | 0.00 | 0.05 | 0.00 | 43 | 1008.1 |
| 20260504184558 | 53 | 327 | 19.0 | 28.0 | 0.00 | 0.05 | 0.00 | 43 | 1008.1 |
| 20260504183105 | 53 | 323 | 19.0 | 29.0 | 0.00 | 0.05 | 0.00 | 45 | 1008.0 |
| 20260504181559 | 54 | 323 | 21.0 | 28.0 | 0.00 | 0.05 | 0.00 | 45 | 1008.0 |
| 20260504180107 | 53 | 350 | 15.0 | 26.0 | 0.00 | 0.05 | 0.00 | 47 | 1008.1 |
| 20260504174553 | 52 | 324 | 20.0 | 31.0 | 0.00 | 0.05 | 0.00 | 49 | 1008.1 |
| 20260504173053 | 52 | 5 | 18.0 | 28.0 | 0.00 | 0.05 | 0.00 | 49 | 1008.1 |
| 20260504171552 | 53 | 346 | 20.0 | 33.0 | 0.00 | 0.05 | 0.00 | 47 | 1008.0 |
| 20260504081503 | 56 | 219 | 2.0 | 9.0 | 0.00 | 0.05 | 0.00 | 43 | 1001.9 |
| 20260504044538 | 56 | 244 | 0.0 | 3.0 | 0.00 | 0.05 | 0.05 | 49 | 1003.6 |
| 20260504043038 | 56 | 242 | 1.0 | 4.0 | 0.00 | 0.05 | 0.05 | 50 | 1003.6 |
| 20260504041537 | 57 | 242 | 4.0 | 9.0 | 0.00 | 0.05 | 0.05 | 50 | 1003.7 |
| 20260504040044 | 57 | 209 | 8.0 | 11.0 | 0.00 | 0.05 | 0.05 | 50 | 1003.6 |
| 20260504034541 | 57 | 210 | 9.0 | 11.0 | 0.00 | 0.05 | 0.05 | 52 | 1003.6 |
| 20260504033038 | 57 | 210 | 6.0 | 14.0 | 0.00 | 0.05 | 0.05 | 56 | 1003.7 |
| 20260504031543 | 56 | 197 | 8.0 | 10.0 | 0.00 | 0.05 | 0.05 | 60 | 1003.6 |
| 20260504030035 | 57 | 169 | 6.0 | 10.0 | 0.00 | 0.05 | 0.05 | 60 | 1003.5 |
| 20260504024534 | 57 | 168 | 5.0 | 9.0 | 0.00 | 0.05 | 0.05 | 59 | 1003.3 |
| 20260504023033 | 59 | 173 | 7.0 | 10.0 | 0.00 | 0.05 | 0.05 | 57 | 1003.2 |
| 20260504021533 | 59 | 171 | 8.0 | 11.0 | 0.00 | 0.05 | 0.05 | 56 | 1003.2 |
| 20260504020033 | 58 | 162 | 8.0 | 10.0 | 0.00 | 0.05 | 0.05 | 58 | 1003.3 |
| 20260504014530 | 60 | 176 | 6.0 | 12.0 | 0.00 | 0.05 | 0.05 | 56 | 1003.4 |
| 20260504013035 | 61 | 178 | 7.0 | 14.0 | 0.00 | 0.05 | 0.05 | 53 | 1003.6 |
| 20260504011529 | 62 | 178 | 11.0 | 19.0 | 0.00 | 0.05 | 0.05 | 50 | 1003.7 |
| 20260504010025 | 63 | 166 | 9.0 | 16.0 | 0.00 | 0.05 | 0.05 | 50 | 1003.9 |
| 20260504004526 | 64 | 167 | 6.0 | 13.0 | 0.00 | 0.05 | 0.05 | 49 | 1004.2 |
| 20260504003028 | 65 | 176 | 9.0 | 15.0 | 0.00 | 0.05 | 0.05 | 46 | 1004.4 |
| 20260504001521 | 65 | 168 | 9.0 | 12.0 | 0.01 | 0.05 | 0.05 | 48 | 1004.7 |
| 20260504000045 | 64 | 166 | 9.0 | 12.0 | 0.01 | 0.05 | 0.05 | 53 | 1005.0 |